Time,TemperatureF,DewpointF,PressureIn,WindDirection,WindDirectionDegrees,WindSpeedMPH,WindSpeedGustMPH,Humidity,HourlyPrecipIn,Conditions,Clouds,dailyrainin,SoftwareType,DateUTC
2013-04-16 00:00:00,60.5,51.4,30.03,SSW,203,6.0,6.0,72,0.00,,,0.00,Wunderground v.1.15,2013-04-16 04:00:00,
2013-04-16 00:05:00,60.5,51.4,30.03,SSE,158,5.0,-999.0,72,0.00,,,0.00,Wunderground v.1.15,2013-04-16 04:05:00,
2013-04-16 00:10:00,60.3,51.2,30.03,SSE,160,6.0,6.0,72,0.00,,,0.00,Wunderground v.1.15,2013-04-16 04:10:00,
2013-04-16 00:15:00,60.3,51.6,30.03,SSW,203,5.0,-999.0,73,0.00,,,0.00,Wunderground v.1.15,2013-04-16 04:15:00,
2013-04-16 00:20:00,60.1,51.4,30.04,SSW,203,4.0,-999.0,73,0.00,,,0.00,Wunderground v.1.15,2013-04-16 04:20:00,
2013-04-16 00:25:00,59.8,51.1,30.03,SSW,203,4.0,-999.0,73,0.00,,,0.00,Wunderground v.1.15,2013-04-16 04:25:00,
2013-04-16 00:30:00,59.7,51.4,30.03,SSW,203,5.0,-999.0,74,0.00,,,0.00,Wunderground v.1.15,2013-04-16 04:30:00,
2013-04-16 00:35:00,59.6,51.3,30.03,South,180,4.0,-999.0,74,0.00,,,0.00,Wunderground v.1.15,2013-04-16 04:35:00,
2013-04-16 00:40:00,59.5,51.2,30.03,South,180,4.0,-999.0,74,0.00,,,0.00,Wunderground v.1.15,2013-04-16 04:40:00,
2013-04-16 00:45:00,59.4,51.1,30.03,South,180,5.0,-999.0,74,0.00,,,0.00,Wunderground v.1.15,2013-04-16 04:45:00,
2013-04-16 00:50:00,59.7,51.0,30.03,South,180,6.0,-999.0,73,0.00,,,0.00,Wunderground v.1.15,2013-04-16 04:50:00,
2013-04-16 00:55:00,59.8,51.1,30.03,South,180,5.0,-999.0,73,0.00,,,0.00,Wunderground v.1.15,2013-04-16 04:55:00,
2013-04-16 01:00:00,59.7,51.4,30.03,SSE,158,6.0,-999.0,74,0.00,,,0.00,Wunderground v.1.15,2013-04-16 05:00:00,
2013-04-16 01:05:00,59.7,51.4,30.03,South,180,4.0,-999.0,74,0.00,,,0.00,Wunderground v.1.15,2013-04-16 05:05:00,
2013-04-16 01:10:00,59.4,51.5,30.03,SSW,203,3.0,-999.0,75,0.00,,,0.00,Wunderground v.1.15,2013-04-16 05:10:00,
2013-04-16 01:15:00,59.1,51.2,30.03,SSW,203,3.0,-999.0,75,0.00,,,0.00,Wunderground v.1.15,2013-04-16 05:15:00,
2013-04-16 01:20:00,58.8,51.2,30.03,SSW,203,3.0,-999.0,76,0.00,,,0.00,Wunderground v.1.15,2013-04-16 05:20:00,
2013-04-16 01:25:00,58.6,51.1,30.03,SSE,158,5.0,-999.0,76,0.00,,,0.00,Wunderground v.1.15,2013-04-16 05:25:00,
2013-04-16 01:30:00,58.8,51.2,30.02,South,180,4.0,-999.0,76,0.00,,,0.00,Wunderground v.1.15,2013-04-16 05:30:00,
2013-04-16 01:35:00,58.8,51.2,30.02,South,180,5.0,-999.0,76,0.00,,,0.00,Wunderground v.1.15,2013-04-16 05:35:00,
2013-04-16 01:40:00,58.8,51.2,30.02,South,180,5.0,-999.0,76,0.00,,,0.00,Wunderground v.1.15,2013-04-16 05:40:00,
2013-04-16 01:45:00,58.9,51.3,30.02,South,180,7.0,-999.0,76,0.00,,,0.00,Wunderground v.1.15,2013-04-16 05:45:00,
2013-04-16 01:50:00,59.0,51.4,30.02,South,180,5.0,-999.0,76,0.00,,,0.00,Wunderground v.1.15,2013-04-16 05:50:00,
2013-04-16 01:55:00,59.0,51.1,30.02,SSW,203,5.0,-999.0,75,0.00,,,0.00,Wunderground v.1.15,2013-04-16 05:55:00,
2013-04-16 02:00:00,59.0,51.4,30.02,SSW,203,4.0,-999.0,76,0.00,,,0.00,Wunderground v.1.15,2013-04-16 06:00:00,
2013-04-16 02:05:00,58.8,51.2,30.02,SSE,158,4.0,-999.0,76,0.00,,,0.00,Wunderground v.1.15,2013-04-16 06:05:00,
2013-04-16 02:10:00,58.5,51.3,30.02,SSW,203,4.0,-999.0,77,0.00,,,0.00,Wunderground v.1.15,2013-04-16 06:10:00,
2013-04-16 02:15:00,58.1,51.3,30.02,SSW,203,4.0,-999.0,78,0.00,,,0.00,Wunderground v.1.15,2013-04-16 06:15:00,
2013-04-16 02:20:00,58.0,51.2,30.02,SSW,200,4.0,11.0,78,0.00,,,0.00,Wunderground v.1.15,2013-04-16 06:20:00,
2013-04-16 02:25:00,58.2,51.4,30.02,SSE,165,4.0,11.0,78,0.00,,,0.00,Wunderground v.1.15,2013-04-16 06:25:00,
2013-04-16 02:30:00,58.4,51.6,30.01,SSE,153,4.0,11.0,78,0.00,,,0.00,Wunderground v.1.15,2013-04-16 06:30:00,
2013-04-16 02:35:00,58.6,51.4,30.01,South,188,4.0,11.0,77,0.00,,,0.00,Wunderground v.1.15,2013-04-16 06:35:00,
2013-04-16 02:40:00,58.6,51.4,30.01,SE,135,4.0,-999.0,77,0.00,,,0.00,Wunderground v.1.15,2013-04-16 06:40:00,
2013-04-16 02:45:00,58.4,51.2,30.00,SSW,196,4.0,11.0,77,0.00,,,0.00,Wunderground v.1.15,2013-04-16 06:45:00,
2013-04-16 02:50:00,58.4,51.6,29.99,SSW,203,5.0,-999.0,78,0.00,,,0.00,Wunderground v.1.15,2013-04-16 06:50:00,
2013-04-16 02:55:00,58.4,51.6,30.00,SSE,168,5.0,11.0,78,0.00,,,0.00,Wunderground v.1.15,2013-04-16 06:55:00,
2013-04-16 03:00:00,58.3,51.5,30.00,SW,215,4.0,7.0,78,0.00,,,0.00,Wunderground v.1.15,2013-04-16 07:00:00,
2013-04-16 03:05:00,58.2,51.7,30.01,SSW,203,4.0,-999.0,79,0.00,,,0.00,Wunderground v.1.15,2013-04-16 07:05:00,
2013-04-16 03:10:00,57.9,51.4,30.00,South,181,4.0,4.0,79,0.00,,,0.00,Wunderground v.1.15,2013-04-16 07:10:00,
2013-04-16 03:15:00,57.8,51.7,30.01,SSW,203,3.0,-999.0,80,0.00,,,0.00,Wunderground v.1.15,2013-04-16 07:15:00,
2013-04-16 03:20:00,57.3,51.2,30.01,SSW,194,2.0,2.0,80,0.00,,,0.00,Wunderground v.1.15,2013-04-16 07:20:00,
2013-04-16 03:25:00,57.1,51.3,30.01,South,180,3.0,4.0,81,0.00,,,0.00,Wunderground v.1.15,2013-04-16 07:25:00,
2013-04-16 03:30:00,57.2,51.4,30.00,South,186,3.0,3.0,81,0.00,,,0.00,Wunderground v.1.15,2013-04-16 07:30:00,
2013-04-16 03:35:00,57.4,51.6,30.00,SSW,196,4.0,5.0,81,0.00,,,0.00,Wunderground v.1.15,2013-04-16 07:35:00,
2013-04-16 03:40:00,57.7,51.9,30.00,SSE,158,5.0,9.0,81,0.00,,,0.00,Wunderground v.1.15,2013-04-16 07:40:00,
2013-04-16 03:45:00,57.8,51.7,30.00,SSE,158,6.0,-999.0,80,0.00,,,0.00,Wunderground v.1.15,2013-04-16 07:45:00,
2013-04-16 03:50:00,58.0,51.9,30.00,SSW,197,5.0,5.0,80,0.00,,,0.00,Wunderground v.1.15,2013-04-16 07:50:00,
2013-04-16 03:55:00,57.9,51.8,30.00,SSW,203,5.0,5.0,80,0.00,,,0.00,Wunderground v.1.15,2013-04-16 07:55:00,
2013-04-16 04:00:00,57.8,52.0,30.01,SSW,197,4.0,6.0,81,0.00,,,0.00,Wunderground v.1.15,2013-04-16 08:00:00,
2013-04-16 04:05:00,57.8,52.0,30.01,SSW,203,5.0,-999.0,81,0.00,,,0.00,Wunderground v.1.15,2013-04-16 08:05:00,
2013-04-16 04:10:00,57.7,51.9,30.01,SE,127,5.0,5.0,81,0.00,,,0.00,Wunderground v.1.15,2013-04-16 08:10:00,
2013-04-16 04:15:00,57.6,51.8,30.01,SSW,204,4.0,5.0,81,0.00,,,0.00,Wunderground v.1.15,2013-04-16 08:15:00,
2013-04-16 04:20:00,57.6,51.8,30.01,South,180,4.0,-999.0,81,0.00,,,0.00,Wunderground v.1.15,2013-04-16 08:20:00,
2013-04-16 04:25:00,57.6,52.1,30.01,SSW,203,5.0,6.0,82,0.00,,,0.00,Wunderground v.1.15,2013-04-16 08:25:00,
2013-04-16 04:30:00,57.5,52.0,30.01,SSW,203,5.0,-999.0,82,0.00,,,0.00,Wunderground v.1.15,2013-04-16 08:30:00,
2013-04-16 04:35:00,57.2,52.1,30.01,SSW,208,4.0,6.0,83,0.00,,,0.00,Wunderground v.1.15,2013-04-16 08:35:00,
2013-04-16 04:40:00,57.1,52.0,30.01,SSW,205,4.0,4.0,83,0.00,,,0.00,Wunderground v.1.15,2013-04-16 08:40:00,
2013-04-16 04:45:00,57.0,51.9,30.01,SSW,196,4.0,4.0,83,0.00,,,0.00,Wunderground v.1.15,2013-04-16 08:45:00,
2013-04-16 04:50:00,56.9,52.1,30.02,SSE,148,4.0,5.0,84,0.00,,,0.00,Wunderground v.1.15,2013-04-16 08:50:00,
2013-04-16 04:55:00,56.8,51.7,30.02,SSW,194,5.0,5.0,83,0.00,,,0.00,Wunderground v.1.15,2013-04-16 08:55:00,
2013-04-16 05:00:00,56.8,52.0,30.02,SSW,198,4.0,5.0,84,0.00,,,0.00,Wunderground v.1.15,2013-04-16 09:00:00,
2013-04-16 05:05:00,56.8,52.0,30.02,South,180,5.0,-999.0,84,0.00,,,0.00,Wunderground v.1.15,2013-04-16 09:05:00,
2013-04-16 05:10:00,56.8,52.0,30.02,South,190,5.0,6.0,84,0.00,,,0.00,Wunderground v.1.15,2013-04-16 09:10:00,
2013-04-16 05:15:00,56.9,52.1,30.02,South,190,5.0,6.0,84,0.00,,,0.00,Wunderground v.1.15,2013-04-16 09:15:00,
2013-04-16 05:20:00,57.0,52.2,30.02,SSW,196,5.0,7.0,84,0.00,,,0.00,Wunderground v.1.15,2013-04-16 09:20:00,
2013-04-16 05:25:00,57.0,52.2,30.03,SSW,203,5.0,-999.0,84,0.00,,,0.00,Wunderground v.1.15,2013-04-16 09:25:00,
2013-04-16 05:29:00,57.2,52.4,30.02,SW,222,5.0,9.0,84,0.00,,,0.00,Wunderground v.1.15,2013-04-16 09:29:00,
2013-04-16 05:30:00,57.1,52.3,30.02,South,180,6.0,-999.0,84,0.00,,,0.00,Wunderground v.1.15,2013-04-16 09:30:00,
2013-04-16 05:35:00,57.4,52.3,30.02,South,191,6.0,9.0,83,0.00,,,0.00,Wunderground v.1.15,2013-04-16 09:35:00,
2013-04-16 05:40:00,57.4,52.3,30.02,South,185,6.0,6.0,83,0.00,,,0.00,Wunderground v.1.15,2013-04-16 09:40:00,
2013-04-16 05:45:00,57.3,52.5,30.02,SSW,200,5.0,6.0,84,0.00,,,0.00,Wunderground v.1.15,2013-04-16 09:45:00,
2013-04-16 05:50:00,57.2,52.4,30.02,South,188,5.0,8.0,84,0.00,,,0.00,Wunderground v.1.15,2013-04-16 09:50:00,
2013-04-16 05:55:00,57.1,52.3,30.02,South,191,5.0,8.0,84,0.00,,,0.00,Wunderground v.1.15,2013-04-16 09:55:00,
2013-04-16 06:00:00,57.1,52.3,30.02,SSW,197,5.0,6.0,84,0.00,,,0.00,Wunderground v.1.15,2013-04-16 10:00:00,
2013-04-16 06:05:00,57.1,52.3,30.02,SSW,203,7.0,-999.0,84,0.00,,,0.00,Wunderground v.1.15,2013-04-16 10:05:00,
2013-04-16 06:10:00,57.3,52.5,30.02,SSW,207,7.0,7.0,84,0.00,,,0.00,Wunderground v.1.15,2013-04-16 10:10:00,
2013-04-16 06:15:00,57.2,52.4,30.02,SSW,203,6.0,-999.0,84,0.00,,,0.00,Wunderground v.1.15,2013-04-16 10:15:00,
2013-04-16 06:20:00,57.3,52.5,30.03,SSE,151,6.0,7.0,84,0.00,,,0.00,Wunderground v.1.15,2013-04-16 10:20:00,
2013-04-16 06:25:00,57.2,52.4,30.03,SSW,194,6.0,7.0,84,0.00,,,0.00,Wunderground v.1.15,2013-04-16 10:25:00,
2013-04-16 06:30:00,57.0,52.2,30.04,SSE,162,5.0,5.0,84,0.00,,,0.00,Wunderground v.1.15,2013-04-16 10:30:00,
2013-04-16 06:35:00,56.9,52.4,30.04,SSW,201,5.0,5.0,85,0.00,,,0.00,Wunderground v.1.15,2013-04-16 10:35:00,
2013-04-16 06:40:00,56.8,52.3,30.04,SSW,203,4.0,-999.0,85,0.00,,,0.00,Wunderground v.1.15,2013-04-16 10:40:00,
2013-04-16 06:45:00,56.8,52.3,30.04,SSW,203,4.0,-999.0,85,0.00,,,0.00,Wunderground v.1.15,2013-04-16 10:45:00,
2013-04-16 06:50:00,56.8,52.3,30.04,SSW,203,4.0,-999.0,85,0.00,,,0.00,Wunderground v.1.15,2013-04-16 10:50:00,
2013-04-16 06:55:00,57.0,52.5,30.04,SSW,203,4.0,-999.0,85,0.00,,,0.00,Wunderground v.1.15,2013-04-16 10:55:00,
2013-04-16 07:00:00,57.0,52.5,30.04,SSW,203,5.0,-999.0,85,0.00,,,0.00,Wunderground v.1.15,2013-04-16 11:00:00,
2013-04-16 07:05:00,57.0,52.5,30.05,SSW,203,4.0,-999.0,85,0.00,,,0.00,Wunderground v.1.15,2013-04-16 11:05:00,
2013-04-16 07:10:00,57.1,52.6,30.05,SSW,203,5.0,-999.0,85,0.00,,,0.00,Wunderground v.1.15,2013-04-16 11:10:00,
2013-04-16 07:15:00,57.2,52.7,30.06,SSW,203,6.0,-999.0,85,0.00,,,0.00,Wunderground v.1.15,2013-04-16 11:15:00,
2013-04-16 07:20:00,57.4,52.9,30.06,SSW,203,6.0,-999.0,85,0.00,,,0.00,Wunderground v.1.15,2013-04-16 11:20:00,
2013-04-16 07:25:00,57.4,52.9,30.06,SSW,203,6.0,-999.0,85,0.00,,,0.00,Wunderground v.1.15,2013-04-16 11:25:00,
2013-04-16 07:30:00,57.6,53.1,30.07,SSW,203,7.0,-999.0,85,0.00,,,0.00,Wunderground v.1.15,2013-04-16 11:30:00,
2013-04-16 07:35:00,57.9,53.1,30.07,SSW,203,7.0,-999.0,84,0.00,,,0.00,Wunderground v.1.15,2013-04-16 11:35:00,
2013-04-16 07:40:00,58.3,53.5,30.07,SSW,203,8.0,-999.0,84,0.00,,,0.00,Wunderground v.1.15,2013-04-16 11:40:00,
2013-04-16 07:45:00,58.6,53.5,30.07,SSW,203,10.0,-999.0,83,0.00,,,0.00,Wunderground v.1.15,2013-04-16 11:45:00,
2013-04-16 07:50:00,58.8,53.6,30.07,SSW,203,10.0,-999.0,83,0.00,,,0.00,Wunderground v.1.15,2013-04-16 11:50:00,
2013-04-16 07:55:00,58.9,53.7,30.07,SSW,203,9.0,-999.0,83,0.00,,,0.00,Wunderground v.1.15,2013-04-16 11:55:00,
2013-04-16 08:00:00,59.0,53.8,30.08,SSW,203,8.0,-999.0,83,0.00,,,0.00,Wunderground v.1.15,2013-04-16 12:00:00,
2013-04-16 08:05:00,59.1,53.9,30.08,SSW,203,9.0,-999.0,83,0.00,,,0.00,Wunderground v.1.15,2013-04-16 12:05:00,
2013-04-16 08:10:00,59.3,53.8,30.08,SW,225,9.0,-999.0,82,0.00,,,0.00,Wunderground v.1.15,2013-04-16 12:10:00,
2013-04-16 08:15:00,59.5,54.0,30.08,SSW,203,10.0,-999.0,82,0.00,,,0.00,Wunderground v.1.15,2013-04-16 12:15:00,
2013-04-16 08:20:00,59.6,54.1,30.08,SSW,203,10.0,-999.0,82,0.00,,,0.00,Wunderground v.1.15,2013-04-16 12:20:00,
2013-04-16 08:25:00,59.5,54.0,30.07,SSW,203,11.0,-999.0,82,0.00,,,0.00,Wunderground v.1.15,2013-04-16 12:25:00,
2013-04-16 08:30:00,59.4,53.9,30.08,SSW,203,10.0,-999.0,82,0.00,,,0.00,Wunderground v.1.15,2013-04-16 12:30:00,
2013-04-16 08:35:00,59.6,54.1,30.07,SSW,203,11.0,-999.0,82,0.00,,,0.00,Wunderground v.1.15,2013-04-16 12:35:00,
2013-04-16 08:40:00,60.1,54.6,30.07,SSW,203,9.0,-999.0,82,0.00,,,0.00,Wunderground v.1.15,2013-04-16 12:40:00,
2013-04-16 08:45:00,60.7,55.2,30.08,SSW,203,10.0,-999.0,82,0.00,,,0.00,Wunderground v.1.15,2013-04-16 12:45:00,
2013-04-16 08:50:00,61.2,55.0,30.08,SSW,203,11.0,-999.0,80,0.00,,,0.00,Wunderground v.1.15,2013-04-16 12:50:00,
2013-04-16 08:55:00,61.2,55.0,30.08,SSW,203,11.0,-999.0,80,0.00,,,0.00,Wunderground v.1.15,2013-04-16 12:55:00,
2013-04-16 09:00:00,61.3,55.1,30.08,SSW,203,10.0,-999.0,80,0.00,,,0.00,Wunderground v.1.15,2013-04-16 13:00:00,
2013-04-16 09:05:00,61.8,55.2,30.08,SSW,203,12.0,-999.0,79,0.00,,,0.00,Wunderground v.1.15,2013-04-16 13:05:00,
2013-04-16 09:10:00,62.2,55.6,30.08,SSW,203,12.0,-999.0,79,0.00,,,0.00,Wunderground v.1.15,2013-04-16 13:10:00,
2013-04-16 09:15:00,62.5,55.9,30.08,SSW,203,10.0,-999.0,79,0.00,,,0.00,Wunderground v.1.15,2013-04-16 13:15:00,
2013-04-16 09:20:00,62.7,56.1,30.08,SSW,203,11.0,-999.0,79,0.00,,,0.00,Wunderground v.1.15,2013-04-16 13:20:00,
2013-04-16 09:25:00,63.2,56.2,30.08,SSW,203,11.0,-999.0,78,0.00,,,0.00,Wunderground v.1.15,2013-04-16 13:25:00,
2013-04-16 09:30:00,63.5,56.5,30.08,SSW,203,12.0,-999.0,78,0.00,,,0.00,Wunderground v.1.15,2013-04-16 13:30:00,
2013-04-16 09:35:00,63.7,56.7,30.08,SSW,203,11.0,-999.0,78,0.00,,,0.00,Wunderground v.1.15,2013-04-16 13:35:00,
2013-04-16 09:40:00,63.8,56.8,30.08,SSW,203,11.0,-999.0,78,0.00,,,0.00,Wunderground v.1.15,2013-04-16 13:40:00,
2013-04-16 09:45:00,64.1,57.1,30.08,SSW,203,10.0,-999.0,78,0.00,,,0.00,Wunderground v.1.15,2013-04-16 13:45:00,
2013-04-16 09:50:00,64.3,56.9,30.08,SSW,203,10.0,-999.0,77,0.00,,,0.00,Wunderground v.1.15,2013-04-16 13:50:00,
2013-04-16 09:55:00,64.6,57.6,30.09,SSW,203,8.0,-999.0,78,0.00,,,0.00,Wunderground v.1.15,2013-04-16 13:55:00,
2013-04-16 10:00:00,64.8,57.1,30.09,SSW,203,12.0,-999.0,76,0.00,,,0.00,Wunderground v.1.15,2013-04-16 14:00:00,
2013-04-16 10:05:00,64.8,57.1,30.09,SSW,203,14.0,-999.0,76,0.00,,,0.00,Wunderground v.1.15,2013-04-16 14:05:00,
2013-04-16 10:10:00,64.5,56.8,30.09,SSW,203,12.0,-999.0,76,0.00,,,0.00,Wunderground v.1.15,2013-04-16 14:10:00,
2013-04-16 10:15:00,64.4,57.0,30.10,SSW,203,11.0,-999.0,77,0.00,,,0.00,Wunderground v.1.15,2013-04-16 14:15:00,
2013-04-16 10:20:00,64.4,57.0,30.10,SSW,203,9.0,-999.0,77,0.00,,,0.00,Wunderground v.1.15,2013-04-16 14:20:00,
2013-04-16 10:25:00,64.3,56.9,30.10,SSW,203,12.0,-999.0,77,0.00,,,0.00,Wunderground v.1.15,2013-04-16 14:25:00,
2013-04-16 10:30:00,64.2,56.8,30.10,SSW,203,9.0,-999.0,77,0.00,,,0.00,Wunderground v.1.15,2013-04-16 14:30:00,
2013-04-16 10:35:00,64.1,57.1,30.10,SSW,203,11.0,-999.0,78,0.00,,,0.00,Wunderground v.1.15,2013-04-16 14:35:00,
2013-04-16 10:40:00,64.1,56.7,30.10,SSW,203,10.0,-999.0,77,0.00,,,0.00,Wunderground v.1.15,2013-04-16 14:40:00,
2013-04-16 10:45:00,64.1,56.7,30.10,SSW,203,11.0,-999.0,77,0.00,,,0.00,Wunderground v.1.15,2013-04-16 14:45:00,
2013-04-16 10:50:00,64.3,57.3,30.10,SSW,203,9.0,-999.0,78,0.00,,,0.00,Wunderground v.1.15,2013-04-16 14:50:00,
2013-04-16 10:55:00,64.6,57.2,30.10,SSW,203,10.0,-999.0,77,0.00,,,0.00,Wunderground v.1.15,2013-04-16 14:55:00,
2013-04-16 11:00:00,65.0,57.6,30.10,SSW,203,10.0,-999.0,77,0.00,,,0.00,Wunderground v.1.15,2013-04-16 15:00:00,
2013-04-16 11:05:00,65.4,58.0,30.10,SSW,203,11.0,-999.0,77,0.00,,,0.00,Wunderground v.1.15,2013-04-16 15:05:00,
2013-04-16 11:10:00,65.8,58.0,30.10,SSW,203,13.0,-999.0,76,0.00,,,0.00,Wunderground v.1.15,2013-04-16 15:10:00,
2013-04-16 11:15:00,65.9,58.1,30.11,SW,225,9.0,-999.0,76,0.00,,,0.00,Wunderground v.1.15,2013-04-16 15:15:00,
2013-04-16 11:20:00,65.9,58.1,30.11,SSW,203,10.0,-999.0,76,0.00,,,0.00,Wunderground v.1.15,2013-04-16 15:20:00,
2013-04-16 11:25:00,65.9,57.7,30.11,SW,225,9.0,-999.0,75,0.00,,,0.00,Wunderground v.1.15,2013-04-16 15:25:00,
2013-04-16 11:30:00,66.2,58.0,30.11,SW,225,9.0,-999.0,75,0.00,,,0.00,Wunderground v.1.15,2013-04-16 15:30:00,
2013-04-16 11:35:00,66.4,58.6,30.11,SW,225,10.0,-999.0,76,0.00,,,0.00,Wunderground v.1.15,2013-04-16 15:35:00,
2013-04-16 11:40:00,66.6,58.4,30.11,SW,225,9.0,-999.0,75,0.00,,,0.00,Wunderground v.1.15,2013-04-16 15:40:00,
2013-04-16 11:45:00,66.7,58.9,30.11,SSW,203,9.0,-999.0,76,0.00,,,0.00,Wunderground v.1.15,2013-04-16 15:45:00,
2013-04-16 11:50:00,67.0,58.8,30.11,SSW,203,10.0,-999.0,75,0.00,,,0.00,Wunderground v.1.15,2013-04-16 15:50:00,
2013-04-16 11:55:00,67.3,59.5,30.11,SSW,203,10.0,-999.0,76,0.00,,,0.00,Wunderground v.1.15,2013-04-16 15:55:00,
2013-04-16 12:00:00,67.5,59.3,30.11,SSW,203,8.0,-999.0,75,0.00,,,0.00,Wunderground v.1.15,2013-04-16 16:00:00,
2013-04-16 12:05:00,67.6,59.4,30.11,SSW,203,10.0,-999.0,75,0.00,,,0.00,Wunderground v.1.15,2013-04-16 16:05:00,
2013-04-16 12:10:00,67.8,59.2,30.12,SSW,203,9.0,-999.0,74,0.00,,,0.00,Wunderground v.1.15,2013-04-16 16:10:00,
2013-04-16 12:15:00,67.9,59.7,30.11,SSW,203,7.0,-999.0,75,0.00,,,0.00,Wunderground v.1.15,2013-04-16 16:15:00,
2013-04-16 12:20:00,67.9,59.7,30.11,SW,225,9.0,-999.0,75,0.00,,,0.00,Wunderground v.1.15,2013-04-16 16:20:00,
2013-04-16 12:25:00,67.9,60.1,30.11,SSW,203,8.0,-999.0,76,0.00,,,0.00,Wunderground v.1.15,2013-04-16 16:25:00,
2013-04-16 12:30:00,68.0,59.8,30.10,SW,225,9.0,-999.0,75,0.00,,,0.00,Wunderground v.1.15,2013-04-16 16:30:00,
2013-04-16 12:35:00,68.3,60.1,30.09,SSW,203,12.0,-999.0,75,0.00,,,0.00,Wunderground v.1.15,2013-04-16 16:35:00,
2013-04-16 12:40:00,68.4,60.2,30.09,SSW,203,11.0,-999.0,75,0.00,,,0.00,Wunderground v.1.15,2013-04-16 16:40:00,
2013-04-16 12:45:00,68.4,60.5,30.08,SSW,203,10.0,-999.0,76,0.00,,,0.00,Wunderground v.1.15,2013-04-16 16:45:00,
2013-04-16 12:50:00,68.4,60.5,30.08,SSW,203,9.0,-999.0,76,0.00,,,0.00,Wunderground v.1.15,2013-04-16 16:50:00,
2013-04-16 12:55:00,68.8,60.6,30.09,SW,225,8.0,-999.0,75,0.00,,,0.00,Wunderground v.1.15,2013-04-16 16:55:00,
2013-04-16 13:00:00,69.4,60.8,30.08,SSW,203,11.0,-999.0,74,0.00,,,0.00,Wunderground v.1.15,2013-04-16 17:00:00,
2013-04-16 13:05:00,69.6,61.3,30.07,SSW,203,9.0,-999.0,75,0.00,,,0.00,Wunderground v.1.15,2013-04-16 17:05:00,
2013-04-16 13:10:00,69.4,61.1,30.07,SSW,203,11.0,-999.0,75,0.00,,,0.00,Wunderground v.1.15,2013-04-16 17:10:00,
2013-04-16 13:15:00,69.1,60.8,30.06,SSW,203,12.0,-999.0,75,0.00,,,0.00,Wunderground v.1.15,2013-04-16 17:15:00,
2013-04-16 13:20:00,69.0,61.1,30.06,SSW,203,12.0,-999.0,76,0.00,,,0.00,Wunderground v.1.15,2013-04-16 17:20:00,
2013-04-16 13:25:00,69.1,61.2,30.05,SSW,203,10.0,-999.0,76,0.00,,,0.00,Wunderground v.1.15,2013-04-16 17:25:00,
2013-04-16 13:30:00,69.5,62.0,30.05,SSW,203,9.0,-999.0,77,0.00,,,0.00,Wunderground v.1.15,2013-04-16 17:30:00,
2013-04-16 13:35:00,69.9,62.0,30.04,SSW,203,9.0,-999.0,76,0.00,,,0.00,Wunderground v.1.15,2013-04-16 17:35:00,
2013-04-16 13:40:00,70.2,61.9,30.06,SW,225,8.0,-999.0,75,0.00,,,0.00,Wunderground v.1.15,2013-04-16 17:40:00,
2013-04-16 13:45:00,70.8,62.1,30.06,SW,225,7.0,-999.0,74,0.00,,,0.00,Wunderground v.1.15,2013-04-16 17:45:00,
2013-04-16 13:50:00,71.2,62.1,30.06,SSW,203,10.0,-999.0,73,0.00,,,0.00,Wunderground v.1.15,2013-04-16 17:50:00,
2013-04-16 13:55:00,71.2,62.5,30.07,SW,225,11.0,-999.0,74,0.00,,,0.00,Wunderground v.1.15,2013-04-16 17:55:00,
2013-04-16 14:00:00,71.1,62.0,30.06,SW,225,9.0,-999.0,73,0.00,,,0.00,Wunderground v.1.15,2013-04-16 18:00:00,
2013-04-16 14:05:00,71.2,61.7,30.06,SSW,203,10.0,-999.0,72,0.00,,,0.00,Wunderground v.1.15,2013-04-16 18:05:00,
2013-04-16 14:10:00,71.2,62.1,30.07,SSW,203,9.0,-999.0,73,0.00,,,0.00,Wunderground v.1.15,2013-04-16 18:10:00,
2013-04-16 14:15:00,71.3,63.0,30.07,SW,225,8.0,-999.0,75,0.00,,,0.00,Wunderground v.1.15,2013-04-16 18:15:00,
2013-04-16 14:20:00,71.7,63.0,30.06,SSW,203,8.0,-999.0,74,0.00,,,0.00,Wunderground v.1.15,2013-04-16 18:20:00,
2013-04-16 14:25:00,72.4,62.9,30.06,SSW,203,8.0,-999.0,72,0.00,,,0.00,Wunderground v.1.15,2013-04-16 18:25:00,
2013-04-16 14:30:00,73.0,62.6,30.07,SSW,203,11.0,-999.0,70,0.00,,,0.00,Wunderground v.1.15,2013-04-16 18:30:00,
2013-04-16 14:35:00,73.2,62.8,30.07,SW,225,9.0,-999.0,70,0.00,,,0.00,Wunderground v.1.15,2013-04-16 18:35:00,
2013-04-16 14:40:00,73.3,62.9,30.07,SSW,203,8.0,-999.0,70,0.00,,,0.00,Wunderground v.1.15,2013-04-16 18:40:00,
2013-04-16 14:45:00,73.8,62.6,30.07,SSW,203,9.0,-999.0,68,0.00,,,0.00,Wunderground v.1.15,2013-04-16 18:45:00,
2013-04-16 14:50:00,73.7,62.9,30.08,SSW,203,10.0,-999.0,69,0.00,,,0.00,Wunderground v.1.15,2013-04-16 18:50:00,
2013-04-16 14:55:00,73.7,63.3,30.08,SSW,203,8.0,-999.0,70,0.00,,,0.00,Wunderground v.1.15,2013-04-16 18:55:00,
2013-04-16 15:00:00,74.0,63.6,30.07,SSW,203,9.0,-999.0,70,0.00,,,0.00,Wunderground v.1.15,2013-04-16 19:00:00,
2013-04-16 15:05:00,73.9,63.1,30.07,SSW,203,10.0,-999.0,69,0.00,,,0.00,Wunderground v.1.15,2013-04-16 19:05:00,
2013-04-16 15:10:00,73.9,63.1,30.07,SSW,203,8.0,-999.0,69,0.00,,,0.00,Wunderground v.1.15,2013-04-16 19:10:00,
2013-04-16 15:15:00,74.0,64.0,30.06,SSW,203,10.0,-999.0,71,0.00,,,0.00,Wunderground v.1.15,2013-04-16 19:15:00,
2013-04-16 15:20:00,74.5,63.2,30.06,SSW,203,8.0,-999.0,68,0.00,,,0.00,Wunderground v.1.15,2013-04-16 19:20:00,
2013-04-16 15:25:00,74.7,63.9,30.06,SW,225,8.0,-999.0,69,0.00,,,0.00,Wunderground v.1.15,2013-04-16 19:25:00,
2013-04-16 15:30:00,74.9,63.2,30.06,SSW,203,10.0,-999.0,67,0.00,,,0.00,Wunderground v.1.15,2013-04-16 19:30:00,
2013-04-16 15:35:00,74.6,63.3,30.06,SW,225,8.0,-999.0,68,0.00,,,0.00,Wunderground v.1.15,2013-04-16 19:35:00,
2013-04-16 15:40:00,74.3,63.5,30.06,SW,225,6.0,-999.0,69,0.00,,,0.00,Wunderground v.1.15,2013-04-16 19:40:00,
2013-04-16 15:45:00,74.2,63.0,30.06,SSW,203,9.0,-999.0,68,0.00,,,0.00,Wunderground v.1.15,2013-04-16 19:45:00,
2013-04-16 15:50:00,74.5,62.8,30.06,SW,225,6.0,-999.0,67,0.00,,,0.00,Wunderground v.1.15,2013-04-16 19:50:00,
2013-04-16 15:55:00,74.8,62.7,30.06,SSW,203,7.0,-999.0,66,0.00,,,0.00,Wunderground v.1.15,2013-04-16 19:55:00,
2013-04-16 16:00:00,75.1,63.0,30.05,SW,225,6.0,-999.0,66,0.00,,,0.00,Wunderground v.1.15,2013-04-16 20:00:00,
2013-04-16 16:05:00,75.5,63.3,30.05,West,270,2.0,-999.0,66,0.00,,,0.00,Wunderground v.1.15,2013-04-16 20:05:00,
2013-04-16 16:10:00,75.7,63.1,30.04,SSW,203,6.0,-999.0,65,0.00,,,0.00,Wunderground v.1.15,2013-04-16 20:10:00,
2013-04-16 16:15:00,75.7,62.7,30.05,SW,225,6.0,-999.0,64,0.00,,,0.00,Wunderground v.1.15,2013-04-16 20:15:00,
2013-04-16 16:20:00,75.6,63.0,30.05,SSW,203,7.0,-999.0,65,0.00,,,0.00,Wunderground v.1.15,2013-04-16 20:20:00,
2013-04-16 16:25:00,75.4,62.4,30.05,SSW,203,9.0,-999.0,64,0.00,,,0.00,Wunderground v.1.15,2013-04-16 20:25:00,
2013-04-16 16:30:00,75.4,61.9,30.05,SSW,203,7.0,-999.0,63,0.00,,,0.00,Wunderground v.1.15,2013-04-16 20:30:00,
2013-04-16 16:35:00,75.4,62.4,30.05,SW,225,7.0,-999.0,64,0.00,,,0.00,Wunderground v.1.15,2013-04-16 20:35:00,
2013-04-16 16:40:00,75.3,61.8,30.05,SW,225,6.0,-999.0,63,0.00,,,0.00,Wunderground v.1.15,2013-04-16 20:40:00,
2013-04-16 16:45:00,75.1,62.1,30.06,SW,225,7.0,-999.0,64,0.00,,,0.00,Wunderground v.1.15,2013-04-16 20:45:00,
2013-04-16 16:50:00,74.8,62.2,30.06,SSW,203,6.0,-999.0,65,0.00,,,0.00,Wunderground v.1.15,2013-04-16 20:50:00,
2013-04-16 16:55:00,74.5,62.0,30.06,SSW,203,4.0,-999.0,65,0.00,,,0.00,Wunderground v.1.15,2013-04-16 20:55:00,
2013-04-16 17:00:00,74.7,62.1,30.06,SW,225,3.0,-999.0,65,0.00,,,0.00,Wunderground v.1.15,2013-04-16 21:00:00,
2013-04-16 17:05:00,74.9,62.3,30.06,WSW,248,3.0,-999.0,65,0.00,,,0.00,Wunderground v.1.15,2013-04-16 21:05:00,
2013-04-16 17:10:00,74.9,63.2,30.06,NNE,23,5.0,-999.0,67,0.00,,,0.00,Wunderground v.1.15,2013-04-16 21:10:00,
2013-04-16 17:15:00,74.2,63.0,30.07,West,270,2.0,-999.0,68,0.00,,,0.00,Wunderground v.1.15,2013-04-16 21:15:00,
2013-04-16 17:20:00,73.2,62.4,30.06,WSW,238,2.0,2.0,69,0.00,,,0.00,Wunderground v.1.15,2013-04-16 21:20:00,
2013-04-16 17:25:00,72.7,62.3,30.06,SSE,155,2.0,3.0,70,0.00,,,0.00,Wunderground v.1.15,2013-04-16 21:25:00,
2013-04-16 17:35:00,72.2,61.5,30.06,NNW,347,1.0,4.0,69,0.00,,,0.00,Wunderground v.1.15,2013-04-16 21:35:00,
2013-04-16 17:40:00,72.1,61.4,30.06,SW,224,2.0,2.0,69,0.00,,,0.00,Wunderground v.1.15,2013-04-16 21:40:00,
2013-04-16 17:45:00,71.9,62.4,30.07,NNW,348,3.0,5.0,72,0.00,,,0.00,Wunderground v.1.15,2013-04-16 21:45:00,
2013-04-16 17:50:00,69.9,62.7,30.07,NNE,20,6.0,6.0,78,0.00,,,0.01,Wunderground v.1.15,2013-04-16 21:50:00,
2013-04-16 17:55:00,68.6,62.2,30.08,NNE,22,7.0,7.0,80,0.00,,,0.01,Wunderground v.1.15,2013-04-16 21:55:00,
2013-04-16 18:00:00,67.7,62.0,30.08,NNE,22,6.0,13.0,82,0.00,,,0.01,Wunderground v.1.15,2013-04-16 22:00:00,
2013-04-16 18:10:00,65.0,60.7,30.10,NNE,32,8.0,8.0,86,0.26,,,0.07,Wunderground v.1.15,2013-04-16 22:10:00,
2013-04-16 18:15:00,63.7,60.1,30.11,NNW,340,6.0,8.0,88,0.13,,,0.08,Wunderground v.1.15,2013-04-16 22:15:00,
2013-04-16 18:20:00,62.8,59.5,30.12,NNE,16,4.0,6.0,89,0.06,,,0.08,Wunderground v.1.15,2013-04-16 22:20:00,
2013-04-16 18:25:00,61.9,58.3,30.12,NE,34,5.0,7.0,88,0.04,,,0.08,Wunderground v.1.15,2013-04-16 22:25:00,
2013-04-16 18:30:00,61.1,57.8,30.13,NNE,28,6.0,6.0,89,0.00,,,0.08,Wunderground v.1.15,2013-04-16 22:30:00,
2013-04-16 18:40:00,60.2,57.3,30.12,NE,40,5.0,6.0,90,0.00,,,0.08,Wunderground v.1.15,2013-04-16 22:40:00,
2013-04-16 18:45:00,59.9,57.0,30.12,NNE,23,6.0,6.0,90,0.00,,,0.08,Wunderground v.1.15,2013-04-16 22:45:00,
2013-04-16 18:55:00,59.6,56.7,30.12,North,11,4.0,6.0,90,0.00,,,0.08,Wunderground v.1.15,2013-04-16 22:55:00,
2013-04-16 19:00:00,59.6,56.7,30.13,NE,45,4.0,8.0,90,0.00,,,0.08,Wunderground v.1.15,2013-04-16 23:00:00,
2013-04-16 19:10:00,59.3,56.4,30.14,NW,312,3.0,3.0,90,0.00,,,0.08,Wunderground v.1.15,2013-04-16 23:10:00,
2013-04-16 19:20:00,59.1,56.2,30.15,NE,43,3.0,3.0,90,0.21,,,0.10,Wunderground v.1.15,2013-04-16 23:20:00,
2013-04-16 19:30:00,58.3,55.7,30.16,NNE,25,3.0,4.0,91,0.07,,,0.11,Wunderground v.1.15,2013-04-16 23:30:00,
2013-04-16 19:40:00,57.6,55.3,30.16,NNE,26,3.0,4.0,92,0.13,,,0.14,Wunderground v.1.15,2013-04-16 23:40:00,
2013-04-16 19:50:00,57.1,55.1,30.17,NE,36,2.0,2.0,93,0.07,,,0.15,Wunderground v.1.15,2013-04-16 23:50:00,
2013-04-16 19:55:00,57.0,55.0,30.18,SSW,201,1.0,2.0,93,0.05,,,0.16,Wunderground v.1.15,2013-04-16 23:55:00,
2013-04-16 20:00:00,56.8,54.8,30.17,NNE,18,1.0,1.0,93,0.15,,,0.17,Wunderground v.1.15,2013-04-17 00:00:00,
2013-04-16 20:10:00,56.5,54.8,30.16,ENE,74,4.0,4.0,94,0.12,,,0.19,Wunderground v.1.15,2013-04-17 00:10:00,
2013-04-16 20:15:00,56.3,54.6,30.16,ENE,58,3.0,4.0,94,0.09,,,0.20,Wunderground v.1.15,2013-04-17 00:15:00,
2013-04-16 20:25:00,55.9,54.2,30.17,North,4,1.0,2.0,94,0.08,,,0.22,Wunderground v.1.15,2013-04-17 00:25:00,
2013-04-16 20:35:00,55.7,54.0,30.17,WNW,291,0.0,0.0,94,0.19,,,0.23,Wunderground v.1.15,2013-04-17 00:35:00,
2013-04-16 20:40:00,55.6,53.9,30.18,North,351,0.0,0.0,94,0.12,,,0.24,Wunderground v.1.15,2013-04-17 00:40:00,
2013-04-16 20:45:00,55.6,54.2,30.18,North,351,0.0,0.0,95,0.10,,,0.25,Wunderground v.1.15,2013-04-17 00:45:00,
2013-04-16 20:50:00,55.6,54.2,30.18,North,351,0.0,0.0,95,0.06,,,0.25,Wunderground v.1.15,2013-04-17 00:50:00,
2013-04-16 21:00:00,55.5,54.1,30.17,NNE,13,0.0,0.0,95,0.05,,,0.26,Wunderground v.1.15,2013-04-17 01:00:00,
2013-04-16 21:10:00,55.5,54.1,30.17,NNE,23,1.0,3.0,95,0.06,,,0.27,Wunderground v.1.15,2013-04-17 01:10:00,
2013-04-16 21:15:00,55.5,54.1,30.17,North,4,3.0,3.0,95,0.05,,,0.27,Wunderground v.1.15,2013-04-17 01:15:00,
2013-04-16 21:20:00,55.4,54.0,30.17,NNE,32,3.0,3.0,95,0.00,,,0.27,Wunderground v.1.15,2013-04-17 01:20:00,
2013-04-16 21:25:00,55.3,54.2,30.17,North,11,2.0,3.0,96,0.00,,,0.27,Wunderground v.1.15,2013-04-17 01:25:00,
2013-04-16 21:35:00,55.3,54.2,30.20,NNE,25,4.0,5.0,96,0.00,,,0.27,Wunderground v.1.15,2013-04-17 01:35:00,
2013-04-16 21:40:00,55.2,54.1,30.20,NE,49,5.0,7.0,96,0.00,,,0.27,Wunderground v.1.15,2013-04-17 01:40:00,
2013-04-16 21:45:00,55.0,53.6,30.18,NNE,26,5.0,7.0,95,0.00,,,0.27,Wunderground v.1.15,2013-04-17 01:45:00,
2013-04-16 21:50:00,54.8,53.4,30.18,NE,40,4.0,4.0,95,0.00,,,0.27,Wunderground v.1.15,2013-04-17 01:50:00,
2013-04-16 21:55:00,54.7,53.3,30.17,NE,34,3.0,4.0,95,0.00,,,0.27,Wunderground v.1.15,2013-04-17 01:55:00,
2013-04-16 22:00:00,54.5,53.1,30.17,ENE,67,2.0,2.0,95,0.00,,,0.27,Wunderground v.1.15,2013-04-17 02:00:00,
2013-04-16 22:10:00,54.0,52.6,30.17,NNE,25,3.0,3.0,95,0.00,,,0.27,Wunderground v.1.15,2013-04-17 02:10:00,
2013-04-16 22:15:00,53.9,52.5,30.17,NNE,26,2.0,3.0,95,0.00,,,0.27,Wunderground v.1.15,2013-04-17 02:15:00,
2013-04-16 22:20:00,53.7,52.3,30.17,NNE,26,1.0,1.0,95,0.00,,,0.27,Wunderground v.1.15,2013-04-17 02:20:00,
2013-04-16 22:25:00,53.5,52.1,30.17,NNE,25,1.0,1.0,95,0.00,,,0.27,Wunderground v.1.15,2013-04-17 02:25:00,
2013-04-16 22:30:00,53.4,52.0,30.17,NNE,25,1.0,1.0,95,0.00,,,0.27,Wunderground v.1.15,2013-04-17 02:30:00,
2013-04-16 22:40:00,52.9,51.5,30.17,NNE,27,0.0,0.0,95,0.00,,,0.27,Wunderground v.1.15,2013-04-17 02:40:00,
2013-04-16 22:45:00,52.7,51.3,30.17,NNE,26,0.0,0.0,95,0.00,,,0.27,Wunderground v.1.15,2013-04-17 02:45:00,
2013-04-16 22:50:00,52.2,50.8,30.17,NNE,25,0.0,0.0,95,0.00,,,0.27,Wunderground v.1.15,2013-04-17 02:50:00,
2013-04-16 22:55:00,52.1,50.7,30.17,ENE,77,0.0,1.0,95,0.00,,,0.27,Wunderground v.1.15,2013-04-17 02:55:00,
2013-04-16 23:00:00,52.3,51.2,30.17,ENE,77,0.0,0.0,96,0.00,,,0.27,Wunderground v.1.15,2013-04-17 03:00:00,
2013-04-16 23:09:00,52.2,51.1,30.17,NE,39,0.0,2.0,96,0.00,,,0.27,Wunderground v.1.15,2013-04-17 03:09:00,
2013-04-16 23:15:00,52.1,51.0,30.17,NE,39,1.0,2.0,96,0.00,,,0.27,Wunderground v.1.15,2013-04-17 03:15:00,
2013-04-16 23:20:00,52.3,51.2,30.18,NE,39,1.0,1.0,96,0.00,,,0.27,Wunderground v.1.15,2013-04-17 03:20:00,
2013-04-16 23:25:00,52.5,51.4,30.18,NE,39,0.0,1.0,96,0.00,,,0.27,Wunderground v.1.15,2013-04-17 03:25:00,
2013-04-16 23:30:00,52.7,51.9,30.18,NE,40,0.0,1.0,97,0.00,,,0.27,Wunderground v.1.15,2013-04-17 03:30:00,
2013-04-16 23:35:00,52.8,52.0,30.18,NE,40,0.0,1.0,97,0.00,,,0.27,Wunderground v.1.15,2013-04-17 03:35:00,
2013-04-16 23:40:00,52.7,51.9,30.18,NE,40,0.0,0.0,97,0.00,,,0.27,Wunderground v.1.15,2013-04-17 03:40:00,
2013-04-16 23:45:00,52.6,51.5,30.18,NE,40,0.0,0.0,96,0.00,,,0.27,Wunderground v.1.15,2013-04-17 03:45:00,
2013-04-16 23:55:00,52.1,51.0,30.19,NE,40,0.0,0.0,96,0.00,,,0.27,Wunderground v.1.15,2013-04-17 03:55:00,